Location: State Camp
(41.2367°N, 77.7828°W)
Time: 10:59:21
(UTC-04:00)

ADEOS Rocket - Visible Passes

Search period start: 28 June 2016 00:00
Search period end: 08 July 2016 00:00
Orbit: 858 x 1308 km, 98.7° (Epoch: 28 June)

Date Brightness Start Highest point End Pass type
(mag) Time Alt. Az. Time Alt. Az. Time Alt. Az.
29 Jun 5.0 04:51:47 10° NE 04:56:10 23° E 05:00:42 10° SSE visible
01 Jul 4.8 04:59:08 10° NE 05:03:53 28° E 05:08:51 10° SSE visible
03 Jul 4.5 05:06:32 10° NNE 05:11:34 33° E 05:16:55 10° SSE visible
04 Jul 5.5 04:19:49 10° ENE 04:22:12 13° E 04:24:38 10° ESE visible
06 Jul 5.4 04:26:37 10° NE 04:29:58 16° E 04:33:25 10° SE visible
